TimePST,TemperatureF,Dew PointF,Humidity,Sea Level PressureIn,VisibilityMPH,Wind Direction,Wind SpeedMPH,Gust SpeedMPH,PrecipitationIn,Events,Conditions,WindDirDegrees,DateUTC
12:48 AM,24.8,23.0,93,-9999,10.0,West,8.1,-,N/A,,Overcast,270,2011-11-15 08:48:00
12:56 AM,24.1,23.0,96,-9999,10.0,WSW,9.2,16.1,N/A,,Overcast,250,2011-11-15 08:56:00
1:07 AM,24.8,23.0,93,-9999,10.0,West,8.1,19.6,N/A,,Overcast,270,2011-11-15 09:07:00
1:37 AM,24.8,23.0,93,-9999,9.0,West,9.2,-,N/A,,Overcast,270,2011-11-15 09:37:00
1:51 AM,24.8,23.0,93,-9999,10.0,Variable,6.9,-,N/A,,Overcast,0,2011-11-15 09:51:00
1:56 AM,24.1,23.0,96,-9999,10.0,Variable,5.8,-,N/A,,Overcast,0,2011-11-15 09:56:00
2:56 AM,24.1,23.0,96,-9999,10.0,West,10.4,21.9,N/A,,Overcast,280,2011-11-15 10:56:00
3:07 AM,24.8,23.0,93,-9999,10.0,West,11.5,24.2,N/A,,Overcast,280,2011-11-15 11:07:00
3:56 AM,24.1,23.0,96,-9999,10.0,West,9.2,19.6,N/A,,Overcast,260,2011-11-15 11:56:00
4:56 AM,25.0,23.0,92,-9999,10.0,Variable,6.9,18.4,N/A,,Overcast,0,2011-11-15 12:56:00
5:33 AM,24.8,23.0,93,-9999,8.0,West,8.1,-,0.00,,Overcast,260,2011-11-15 13:33:00
5:46 AM,24.8,23.0,93,-9999,1.8,West,8.1,-,0.00,Snow,Light Snow,270,2011-11-15 13:46:00
5:54 AM,24.8,23.0,93,-9999,1.0,Variable,6.9,-,0.00,Snow,Light Snow,0,2011-11-15 13:54:00
5:56 AM,25.0,23.0,92,-9999,1.0,Variable,6.9,-,0.00,Snow,Light Snow,0,2011-11-15 13:56:00
6:01 AM,24.8,23.0,93,-9999,2.0,Variable,6.9,17.3,0.00,Snow,Light Snow,0,2011-11-15 14:01:00
6:17 AM,24.8,24.8,100,-9999,1.2,Variable,6.9,-,0.01,Snow,Light Snow,0,2011-11-15 14:17:00
6:31 AM,24.8,24.8,100,-9999,2.0,Variable,5.8,-,0.01,Snow,Light Snow,0,2011-11-15 14:31:00
6:34 AM,24.8,23.0,93,-9999,3.0,West,8.1,-,0.01,Snow,Light Snow,270,2011-11-15 14:34:00
6:56 AM,24.1,21.9,91,-9999,9.0,Variable,5.8,-,0.01,,Mostly Cloudy,0,2011-11-15 14:56:00
7:27 AM,24.8,23.0,93,-9999,0.8,Variable,6.9,-,N/A,,Scattered Clouds,0,2011-11-15 15:27:00
7:31 AM,24.8,24.8,100,-9999,0.2,Variable,4.6,-,N/A,Fog,Light Freezing Fog,0,2011-11-15 15:31:00
7:40 AM,24.8,24.8,100,-9999,0.2,Variable,6.9,-,0.00,Fog-Snow,Light Snow,0,2011-11-15 15:40:00
7:56 AM,25.0,24.1,96,-9999,0.2,Variable,6.9,-,0.01,Fog-Snow,Snow,0,2011-11-15 15:56:00
8:05 AM,24.8,24.8,100,-9999,0.5,West,9.2,-,0.01,Fog-Snow,Light Snow,260,2011-11-15 16:05:00
8:12 AM,24.8,24.8,100,-9999,1.5,West,8.1,-,0.01,Snow,Light Snow,280,2011-11-15 16:12:00
8:27 AM,24.8,24.8,100,-9999,1.0,West,8.1,-,0.01,Snow,Light Snow,260,2011-11-15 16:27:00
8:30 AM,24.8,24.8,100,-9999,0.8,West,9.2,-,0.01,Snow,Light Snow,260,2011-11-15 16:30:00
8:46 AM,26.6,24.8,93,-9999,0.2,Variable,5.8,-,0.02,Fog-Snow,Light Snow,0,2011-11-15 16:46:00
8:56 AM,26.1,26.1,100,-9999,0.2,Variable,5.8,-,0.03,Fog-Snow,Light Snow,0,2011-11-15 16:56:00
9:12 AM,26.6,24.8,93,-9999,1.0,WNW,9.2,18.4,0.00,Snow,Light Snow,290,2011-11-15 17:12:00
9:23 AM,26.6,24.8,93,-9999,1.0,Variable,5.8,-,0.01,Snow,Light Snow,0,2011-11-15 17:23:00
9:36 AM,26.6,24.8,93,-9999,1.5,Variable,4.6,-,0.01,Snow,Light Snow,0,2011-11-15 17:36:00
9:38 AM,26.6,24.8,93,-9999,1.0,West,5.8,-,0.01,,Overcast,280,2011-11-15 17:38:00
9:43 AM,26.6,26.6,100,-9999,0.5,WNW,6.9,-,0.01,Fog,Light Freezing Fog,290,2011-11-15 17:43:00
9:54 AM,26.6,24.8,93,-9999,1.8,WNW,6.9,-,0.01,,Overcast,300,2011-11-15 17:54:00
9:56 AM,26.1,25.0,96,-9999,2.0,WNW,6.9,-,0.01,,Overcast,290,2011-11-15 17:56:00
9:58 AM,26.6,26.6,100,-9999,1.2,West,6.9,-,N/A,,Overcast,280,2011-11-15 17:58:00
10:03 AM,26.6,26.6,100,-9999,0.8,Variable,6.9,-,N/A,,Overcast,0,2011-11-15 18:03:00
10:07 AM,26.6,26.6,100,-9999,1.0,West,5.8,-,0.00,Snow,Light Snow,270,2011-11-15 18:07:00
10:12 AM,26.6,24.8,93,-9999,1.5,NW,9.2,-,0.00,Snow,Light Snow,310,2011-11-15 18:12:00
10:16 AM,26.6,24.8,93,-9999,2.0,Variable,6.9,-,0.00,Snow,Light Snow,0,2011-11-15 18:16:00
10:22 AM,26.6,24.8,93,-9999,2.0,Variable,6.9,-,0.00,,Overcast,0,2011-11-15 18:22:00
10:24 AM,26.6,24.8,93,-9999,1.2,Variable,6.9,-,0.00,,Overcast,0,2011-11-15 18:24:00
10:31 AM,26.6,24.8,93,-9999,0.5,WNW,6.9,-,0.00,Fog,Light Freezing Fog,300,2011-11-15 18:31:00
10:48 AM,26.6,26.6,100,-9999,2.0,NW,5.8,-,0.00,,Overcast,310,2011-11-15 18:48:00
10:53 AM,26.6,26.6,100,-9999,1.0,Variable,5.8,-,0.00,,Overcast,0,2011-11-15 18:53:00
10:56 AM,26.1,26.1,100,-9999,0.8,Variable,4.6,-,0.00,,Overcast,0,2011-11-15 18:56:00
11:19 AM,-9999,-9999,N/A,30.15,-9999.0,North,-9999.0,-,N/A,,Unknown,0,2011-11-15 19:19:00
11:56 AM,-9999,-9999,N/A,30.15,-9999.0,North,-9999.0,-,N/A,,Unknown,0,2011-11-15 19:56:00
12:56 PM,27.0,26.1,96,30.27,6.0,Calm,Calm,-,N/A,,Mist,0,2011-11-15 20:56:00
1:07 PM,26.6,26.6,100,30.17,2.5,Variable,4.6,-,N/A,,Overcast,0,2011-11-15 21:07:00
1:21 PM,26.6,24.8,93,30.17,7.0,Variable,4.6,-,N/A,,Overcast,0,2011-11-15 21:21:00
1:30 PM,26.6,26.6,100,30.17,3.0,Calm,Calm,-,N/A,,Overcast,0,2011-11-15 21:30:00
1:34 PM,26.6,26.6,100,30.17,1.5,Variable,3.5,-,N/A,,Overcast,0,2011-11-15 21:34:00
1:48 PM,26.6,26.6,100,30.17,9.0,Calm,Calm,-,N/A,,Overcast,0,2011-11-15 21:48:00
1:56 PM,27.0,26.1,96,30.28,6.0,Calm,Calm,-,N/A,,Overcast,0,2011-11-15 21:56:00
2:56 PM,27.0,25.0,92,30.29,8.0,Calm,Calm,-,N/A,,Mostly Cloudy,0,2011-11-15 22:56:00
3:06 PM,26.6,26.6,100,30.18,1.8,Calm,Calm,-,0.00,Snow,Light Snow,0,2011-11-15 23:06:00
3:38 PM,26.6,26.6,100,30.18,10.0,Calm,Calm,-,0.00,,Partly Cloudy,0,2011-11-15 23:38:00
3:56 PM,27.0,25.0,92,30.29,10.0,Calm,Calm,-,0.00,,Clear,0,2011-11-15 23:56:00
4:56 PM,25.0,19.9,81,30.30,10.0,Calm,Calm,-,N/A,,Clear,0,2011-11-16 00:56:00
5:56 PM,25.0,21.0,85,30.30,10.0,Calm,Calm,-,N/A,,Clear,0,2011-11-16 01:56:00
6:56 PM,25.0,21.0,85,30.30,10.0,Calm,Calm,-,N/A,,Clear,0,2011-11-16 02:56:00
7:56 PM,24.1,21.9,91,30.30,10.0,East,3.5,-,N/A,,Clear,100,2011-11-16 03:56:00
8:56 PM,23.0,21.0,92,30.30,10.0,Calm,Calm,-,N/A,,Clear,0,2011-11-16 04:56:00
9:56 PM,23.0,21.0,92,30.29,10.0,East,4.6,-,N/A,,Clear,90,2011-11-16 05:56:00
10:18 PM,21.2,21.2,100,30.17,2.5,East,3.5,-,N/A,,Scattered Clouds,80,2011-11-16 06:18:00
10:24 PM,21.2,21.2,100,30.18,1.2,ENE,4.6,-,N/A,,Mostly Cloudy,70,2011-11-16 06:24:00
10:34 PM,21.2,19.4,93,30.17,2.0,Variable,4.6,-,N/A,,Mostly Cloudy,0,2011-11-16 06:34:00
10:41 PM,21.2,19.4,93,30.17,10.0,East,4.6,-,N/A,,Mostly Cloudy,90,2011-11-16 06:41:00
10:48 PM,21.2,19.4,93,30.17,10.0,Variable,3.5,-,N/A,,Scattered Clouds,0,2011-11-16 06:48:00
10:56 PM,21.9,19.9,92,30.29,10.0,ENE,4.6,-,N/A,,Partly Cloudy,70,2011-11-16 06:56:00
11:56 PM,21.0,19.9,96,30.17,10.0,NE,3.5,-,N/A,,Clear,40,2011-11-16 07:56:00